OK,174,19,788,174,2014-10-01T01:45:00,0,28072558,204113
OK,174,19,788,174,2014-10-01T01:50:00,0,28073005,204113
OK,174,19,788,174,2014-10-01T01:55:00,0,28073454,204113
OK,174,19,788,174,2014-10-01T02:05:00,0,28074220,204113
OK,174,19,788,174,2014-10-01T02:10:00,0,28074663,204113
OK,174,19,788,174,2014-10-01T02:15:00,0,28075109,204113
OK,174,19,788,174,2014-10-01T02:20:00,0,28075558,204113
OK,174,19,788,174,2014-10-01T02:25:00,0,28075999,204113
OK,174,19,788,174,2014-10-01T02:30:00,0,28076390,204113
OK,174,19,788,174,2014-10-01T02:35:00,0,28076839,204113
OK,174,19,788,174,2014-10-01T02:40:00,0,28077288,204113
OK,174,19,788,174,2014-10-01T02:45:00,0,28077722,204113
OK,174,19,788,174,2014-10-01T02:50:00,0,28078140,204113
OK,174,19,788,174,2014-10-01T02:55:00,0,28078589,204113
OK,174,19,788,174,2014-10-01T03:00:00,0,28079034,204113
OK,174,19,788,174,2014-10-01T03:05:00,0,28079482,204113
OK,174,19,788,174,2014-10-01T03:10:00,0,28079925,204113
OK,174,19,788,174,2014-10-01T03:20:00,0,28080708,204113
OK,174,19,788,174,2014-10-01T03:25:00,0,28081157,204113
OK,174,19,788,174,2014-10-01T03:30:00,0,28081605,204113
OK,174,19,788,174,2014-10-01T03:35:00,0,28082053,204113
OK,174,19,788,174,2014-10-01T03:40:00,0,28082502,204113
OK,174,19,788,174,2014-10-01T03:45:00,0,28082934,204113
OK,174,19,788,174,2014-10-01T03:50:00,0,28083367,204113
OK,174,19,788,174,2014-10-01T03:55:00,0,28083816,204113
OK,174,19,788,174,2014-10-01T04:00:00,0,28084265,204113
OK,174,19,788,174,2014-10-01T04:05:00,0,28084706,204113
OK,174,19,788,174,2014-10-01T04:10:00,0,28085131,204113
OK,174,19,788,174,2014-10-01T04:15:00,0,28085580,204113
OK,174,19,788,174,2014-10-01T04:20:00,0,28086025,204113
OK,174,19,788,174,2014-10-01T04:25:00,0,28086474,204113
OK,2413,1,788,2413,2014-10-01T04:30:00,2,28086916,204113
OK,2413,1,788,2413,2014-10-01T04:35:00,2,28087365,204113
OK,2413,1,788,2413,2014-10-01T04:40:00,0,28087810,204113
OK,2413,1,788,2413,2014-10-01T04:45:00,0,28088259,204113
OK,2413,1,788,2413,2014-10-01T04:50:00,0,28088683,204113
OK,2413,1,788,2413,2014-10-01T04:55:00,0,28089129,204113
OK,2413,1,788,2413,2014-10-01T05:00:00,0,28089562,204113
OK,2413,1,788,2413,2014-10-01T05:05:00,0,28090011,204113
OK,2413,1,788,2413,2014-10-01T05:10:00,0,28090460,204113
OK,2413,1,788,2413,2014-10-01T05:15:00,0,28090804,204113
OK,2413,1,788,2413,2014-10-01T05:20:00,0,28091253,204113
OK,2413,1,788,2413,2014-10-01T05:25:00,0,28091699,204113
OK,193,17,788,193,2014-10-01T05:30:00,3,28092119,204113
OK,196,17,788,196,2014-10-01T05:35:00,2,28092567,204113
OK,160,21,788,160,2014-10-01T05:40:00,2,28093012,204113
OK,127,26,788,127,2014-10-01T05:45:00,1,28093448,204113
OK,127,26,788,127,2014-10-01T05:50:00,0,28093884,204113
OK,199,17,788,199,2014-10-01T05:55:00,3,28094329,204113
OK,186,18,788,186,2014-10-01T06:00:00,4,28094741,204113
OK,197,17,788,197,2014-10-01T06:05:00,5,28095189,204113
OK,217,15,788,217,2014-10-01T06:10:00,6,28095636,204113
OK,163,20,788,163,2014-10-01T06:15:00,0,28096077,204113
OK,163,20,788,163,2014-10-01T06:20:00,0,28096498,204113
OK,163,20,788,163,2014-10-01T06:25:00,0,28096947,204113
OK,165,20,788,165,2014-10-01T06:30:00,3,28097381,204113
OK,145,23,788,145,2014-10-01T06:35:00,8,28097830,204113
OK,135,25,788,135,2014-10-01T06:40:00,7,28098279,204113
OK,143,23,788,143,2014-10-01T06:45:00,3,28098716,204113
OK,142,23,788,142,2014-10-01T06:50:00,2,28099160,204113
OK,130,26,788,130,2014-10-01T07:00:00,6,28099951,204113
OK,130,26,788,130,2014-10-01T07:10:00,0,28100707,204113
OK,218,15,788,218,2014-10-01T07:20:00,1,28101527,204113
OK,172,19,788,172,2014-10-01T07:25:00,2,28101976,204113
OK,127,26,788,127,2014-10-01T07:30:00,1,28102412,204113
OK,127,26,788,127,2014-10-01T07:35:00,0,28102861,204113
OK,127,26,788,127,2014-10-01T07:40:00,0,28103288,204113
OK,127,26,788,127,2014-10-01T07:45:00,0,28103735,204113
OK,127,26,788,127,2014-10-01T07:50:00,0,28104180,204113
OK,127,26,788,127,2014-10-01T07:55:00,0,28104625,204113
OK,127,26,788,127,2014-10-01T08:00:00,0,28105064,204113
OK,127,26,788,127,2014-10-01T08:05:00,0,28105511,204113
OK,156,21,788,156,2014-10-01T08:10:00,1,28105951,204113
OK,156,21,788,156,2014-10-01T08:15:00,1,28106399,204113
OK,156,21,788,156,2014-10-01T08:20:00,0,28107226,204113
OK,200,16,788,200,2014-10-01T08:30:00,1,28107675,204113
OK,200,16,788,200,2014-10-01T08:35:00,0,28108119,204113
OK,200,16,788,200,2014-10-01T08:40:00,0,28108563,204113
OK,193,17,788,193,2014-10-01T08:45:00,1,28109008,204113
OK,193,17,788,193,2014-10-01T08:50:00,1,28109440,204113
OK,198,17,788,198,2014-10-01T09:00:00,1,28110232,204113
OK,156,21,788,156,2014-10-01T09:05:00,2,28110670,204113
OK,102,33,788,102,2014-10-01T09:10:00,1,28111104,204113
OK,102,33,788,102,2014-10-01T09:15:00,0,28111544,204113
OK,102,33,788,102,2014-10-01T09:20:00,0,28111982,204113
OK,96,35,788,96,2014-10-01T09:30:00,0,28112772,204113
OK,152,22,788,152,2014-10-01T09:35:00,1,28113211,204113
OK,161,21,788,161,2014-10-01T09:40:00,2,28113645,204113
OK,170,19,788,170,2014-10-01T09:45:00,1,28114083,204113
OK,170,19,788,170,2014-10-01T09:50:00,0,28114526,204113
OK,139,24,788,139,2014-10-01T10:00:00,1,28115329,204113
OK,139,24,788,139,2014-10-01T10:05:00,1,28115771,204113
OK,111,30,788,111,2014-10-01T10:10:00,1,28116190,204113
OK,112,30,788,112,2014-10-01T10:15:00,2,28116629,204113
OK,114,29,788,114,2014-10-01T10:20:00,1,28117047,204113
OK,114,29,788,114,2014-10-01T10:25:00,0,28117487,204113
OK,114,29,788,114,2014-10-01T10:30:00,0,28117921,204113
OK,92,36,788,92,2014-10-01T10:35:00,2,28118369,204113
OK,92,36,788,92,2014-10-01T10:40:00,2,28118814,204113
OK,111,30,788,111,2014-10-01T10:45:00,0,28119259,204113
OK,111,30,788,111,2014-10-01T10:50:00,0,28119706,204113
OK,196,17,788,196,2014-10-01T10:55:00,1,28120153,204113
OK,196,17,788,196,2014-10-01T11:00:00,0,28120602,204113
OK,196,17,788,196,2014-10-01T11:10:00,0,28121434,204113
OK,80,42,788,80,2014-10-01T11:15:00,1,28121875,204113
OK,80,42,788,80,2014-10-01T11:20:00,1,28122321,204113
OK,134,25,788,134,2014-10-01T11:25:00,1,28122764,204113
OK,134,25,788,134,2014-10-01T11:30:00,0,28123211,204113
OK,134,25,788,134,2014-10-01T11:35:00,0,28123650,204113
OK,134,25,788,134,2014-10-01T11:40:00,0,28124092,204113
OK,179,18,788,179,2014-10-01T11:50:00,1,28124943,204113
OK,179,18,788,179,2014-10-01T11:55:00,1,28125385,204113
OK,179,18,788,179,2014-10-01T12:00:00,0,28125821,204113
OK,93,36,788,93,2014-10-01T12:05:00,2,28126622,204113
OK,93,36,788,93,2014-10-01T12:10:00,2,28127071,204113
OK,94,36,788,94,2014-10-01T12:20:00,1,28127520,204113
OK,94,36,788,94,2014-10-01T12:30:00,0,28128397,204113
OK,94,36,788,94,2014-10-01T12:35:00,0,28128838,204113
OK,94,36,788,94,2014-10-01T12:40:00,0,28129281,204113
OK,94,36,788,94,2014-10-01T12:50:00,0,28130164,204113
OK,94,36,788,94,2014-10-01T13:00:00,0,28131041,204113
OK,94,36,788,94,2014-10-01T13:05:00,0,28131481,204113
OK,96,35,788,96,2014-10-01T13:10:00,1,28131927,204113
OK,96,35,788,96,2014-10-01T13:15:00,1,28132366,204113
OK,149,22,788,149,2014-10-01T13:20:00,2,28132812,204113
OK,149,22,788,149,2014-10-01T13:25:00,2,28133699,204113
OK,112,30,788,112,2014-10-01T13:30:00,0,28134138,204113
OK,112,30,788,112,2014-10-01T13:40:00,0,28134587,204113
OK,112,30,788,112,2014-10-01T13:45:00,0,28135455,204113
OK,112,30,788,112,2014-10-01T13:50:00,0,28135892,204113
OK,112,30,788,112,2014-10-01T13:55:00,0,28136341,204113
OK,112,30,788,112,2014-10-01T14:00:00,0,28136781,204113
OK,112,30,788,112,2014-10-01T14:05:00,0,28137230,204113
OK,112,30,788,112,2014-10-01T14:10:00,0,28137665,204113
OK,139,24,788,139,2014-10-01T14:20:00,1,28138113,204113
OK,123,27,788,123,2014-10-01T14:30:00,1,28138990,204113
OK,123,27,788,123,2014-10-01T14:40:00,0,28139850,204113
OK,139,24,788,139,2014-10-01T14:50:00,1,28140741,204113
OK,139,24,788,139,2014-10-01T15:00:00,0,28141616,204113
OK,139,24,788,139,2014-10-01T15:10:00,0,28142493,204113
OK,139,24,788,139,2014-10-01T15:15:00,0,28142932,204113
OK,139,24,788,139,2014-10-01T15:20:00,0,28143369,204113
OK,139,24,788,139,2014-10-01T15:25:00,0,28143817,204113
OK,139,24,788,139,2014-10-01T15:30:00,0,28144266,204113
OK,139,24,788,139,2014-10-01T15:35:00,0,28145101,204113
OK,96,35,788,96,2014-10-01T15:45:00,1,28145550,204113
OK,96,35,788,96,2014-10-01T15:50:00,1,28145999,204113
OK,96,35,788,96,2014-10-01T15:55:00,0,28146448,204113
OK,96,35,788,96,2014-10-01T16:00:00,0,28146892,204113
OK,145,23,788,145,2014-10-01T16:05:00,1,28147303,204113
OK,145,23,788,145,2014-10-01T16:10:00,1,28147749,204113
OK,145,23,788,145,2014-10-01T16:20:00,0,28148599,204113
OK,145,23,788,145,2014-10-01T16:25:00,0,28149041,204113
OK,145,23,788,145,2014-10-01T16:30:00,0,28149487,204113
OK,121,28,788,121,2014-10-01T16:40:00,2,28150362,204113
OK,109,31,788,109,2014-10-01T16:50:00,1,28151229,204113
OK,166,20,788,166,2014-10-01T16:55:00,1,28151678,204113
OK,145,23,788,145,2014-10-01T17:05:00,0,28152127,204113
OK,183,18,788,183,2014-10-01T17:10:00,1,28152573,204113
OK,183,18,788,183,2014-10-01T17:15:00,0,28153020,204113
OK,183,18,788,183,2014-10-01T17:20:00,0,28153469,204113
OK,118,28,788,118,2014-10-01T17:25:00,3,28153910,204113
OK,117,29,788,117,2014-10-01T17:30:00,0,28154328,204113
OK,117,29,788,117,2014-10-01T17:35:00,0,28154775,204113
OK,117,29,788,117,2014-10-01T17:40:00,0,28155219,204113
OK,119,28,788,119,2014-10-01T17:45:00,1,28155653,204113
OK,119,28,788,119,2014-10-01T17:50:00,0,28156085,204113
OK,119,28,788,119,2014-10-01T17:55:00,0,28156534,204113
OK,129,26,788,129,2014-10-01T18:00:00,2,28156979,204113
OK,129,26,788,129,2014-10-01T18:05:00,2,28157409,204113
OK,134,25,788,134,2014-10-01T18:10:00,1,28157850,204113
OK,134,25,788,134,2014-10-01T18:15:00,1,28158296,204113
OK,134,25,788,134,2014-10-01T18:20:00,0,28158741,204113
OK,134,25,788,134,2014-10-01T18:25:00,0,28159186,204113
OK,134,25,788,134,2014-10-01T18:35:00,0,28159970,204113
OK,134,25,788,134,2014-10-01T18:40:00,0,28160419,204113
OK,134,25,788,134,2014-10-01T18:45:00,0,28160864,204113
OK,134,25,788,134,2014-10-01T18:50:00,0,28161306,204113
OK,134,25,788,134,2014-10-01T19:00:00,0,28162172,204113
OK,135,25,788,135,2014-10-01T19:05:00,1,28162618,204113
OK,135,25,788,135,2014-10-01T19:10:00,1,28163007,204113
OK,135,25,788,135,2014-10-01T19:15:00,0,28163453,204113
OK,135,25,788,135,2014-10-01T19:20:00,0,28163902,204113
OK,135,25,788,135,2014-10-01T19:25:00,0,28164336,204113
OK,135,25,788,135,2014-10-01T19:30:00,0,28164782,204113
OK,135,25,788,135,2014-10-01T19:35:00,0,28165217,204113
OK,135,25,788,135,2014-10-01T19:40:00,0,28165655,204113
OK,135,25,788,135,2014-10-01T19:45:00,0,28166458,204113
OK,135,25,788,135,2014-10-01T19:55:00,0,28166907,204113
OK,149,22,788,149,2014-10-01T20:00:00,1,28167770,204113
OK,149,22,788,149,2014-10-01T20:05:00,0,28168218,204113
OK,149,22,788,149,2014-10-01T20:10:00,0,28168663,204113
OK,149,22,788,149,2014-10-01T20:15:00,0,28169112,204113
OK,149,22,788,149,2014-10-01T20:25:00,0,28169560,204113
OK,149,22,788,149,2014-10-01T20:30:00,0,28170431,204113
OK,149,22,788,149,2014-10-01T20:35:00,0,28170879,204113
OK,149,22,788,149,2014-10-01T20:40:00,0,28171316,204113
OK,149,22,788,149,2014-10-01T20:45:00,0,28171762,204113
OK,149,22,788,149,2014-10-01T20:50:00,0,28172210,204113
OK,149,22,788,149,2014-10-01T20:55:00,0,28172656,204113
OK,149,22,788,149,2014-10-01T21:00:00,0,28173102,204113
OK,149,22,788,149,2014-10-01T21:05:00,0,28173551,204113
OK,149,22,788,149,2014-10-01T21:10:00,0,28173992,204113
OK,149,22,788,149,2014-10-01T21:15:00,0,28174441,204113
OK,149,22,788,149,2014-10-01T21:20:00,0,28174867,204113
OK,149,22,788,149,2014-10-01T21:25:00,0,28175263,204113
OK,149,22,788,149,2014-10-01T21:30:00,0,28175712,204113
OK,149,22,788,149,2014-10-01T21:35:00,0,28176161,204113
OK,149,22,788,149,2014-10-01T21:45:00,0,28176610,204113
OK,149,22,788,149,2014-10-01T21:50:00,0,28177406,204113
OK,149,22,788,149,2014-10-01T21:55:00,0,28177852,204113
OK,149,22,788,149,2014-10-01T22:05:00,0,28178301,204113
OK,149,22,788,149,2014-10-01T22:10:00,0,28178748,204113
OK,149,22,788,149,2014-10-01T22:15:00,0,28179625,204113
OK,149,22,788,149,2014-10-01T22:20:00,0,28180072,204113
OK,149,22,788,149,2014-10-01T22:25:00,0,28180471,204113
OK,149,22,788,149,2014-10-01T22:30:00,0,28180919,204113
OK,149,22,788,149,2014-10-01T22:35:00,0,28181343,204113
OK,149,22,788,149,2014-10-01T22:40:00,0,28181791,204113
OK,149,22,788,149,2014-10-01T22:45:00,0,28182238,204113
OK,149,22,788,149,2014-10-01T22:50:00,0,28182687,204113
OK,149,22,788,149,2014-10-01T22:55:00,0,28183104,204113
OK,149,22,788,149,2014-10-01T23:00:00,0,28183537,204113
OK,149,22,788,149,2014-10-01T23:05:00,0,28183982,204113
OK,149,22,788,149,2014-10-01T23:10:00,0,28184431,204113
OK,149,22,788,149,2014-10-01T23:15:00,0,28184866,204113
OK,149,22,788,149,2014-10-01T23:20:00,0,28185314,204113
OK,149,22,788,149,2014-10-01T23:25:00,0,28185745,204113
OK,149,22,788,149,2014-10-01T23:30:00,0,28186137,204113
OK,149,22,788,149,2014-10-01T23:35:00,0,28186586,204113
OK,149,22,788,149,2014-10-01T23:40:00,0,28186984,204113
OK,149,22,788,149,2014-10-01T23:45:00,0,28187426,204113
OK,149,22,788,149,2014-10-01T23:50:00,0,28187875,204113
OK,149,22,788,149,2014-10-01T23:55:00,0,28188316,204113
OK,149,22,788,149,2014-10-02T00:00:00,0,28188752,204113
OK,149,22,788,149,2014-10-02T00:10:00,0,28189201,204113
OK,149,22,788,149,2014-10-02T00:20:00,0,28190072,204113
OK,149,22,788,149,2014-10-02T00:25:00,0,28190874,204113
OK,149,22,788,149,2014-10-02T00:35:00,0,28191323,204113
OK,149,22,788,149,2014-10-02T00:45:00,0,28192078,204113
OK,149,22,788,149,2014-10-02T00:55:00,0,28192955,204113
OK,149,22,788,149,2014-10-02T01:00:00,0,28193771,204113
OK,149,22,788,149,2014-10-02T01:10:00,0,28194220,204113
OK,149,22,788,149,2014-10-02T01:15:00,0,28194669,204113
OK,149,22,788,149,2014-10-02T01:25:00,0,28195354,204113
OK,149,22,788,149,2014-10-02T01:30:00,0,28195803,204113
OK,149,22,788,149,2014-10-02T01:40:00,0,28196536,204113
OK,149,22,788,149,2014-10-02T01:50:00,0,28197408,204113
OK,149,22,788,149,2014-10-02T01:55:00,0,28197856,204113
OK,149,22,788,149,2014-10-02T02:00:00,0,28198304,204113
OK,149,22,788,149,2014-10-02T02:05:00,0,28198753,204113
OK,149,22,788,149,2014-10-02T02:10:00,0,28199567,204113
OK,149,22,788,149,2014-10-02T02:15:00,0,28200009,204113
OK,149,22,788,149,2014-10-02T02:20:00,0,28200452,204113
OK,149,22,788,149,2014-10-02T02:25:00,0,28200901,204113
OK,149,22,788,149,2014-10-02T02:30:00,0,28201332,204113
OK,149,22,788,149,2014-10-02T02:45:00,0,28202230,204113
OK,149,22,788,149,2014-10-02T02:50:00,0,28202672,204113
OK,149,22,788,149,2014-10-02T03:00:00,0,28203120,204113
OK,149,22,788,149,2014-10-02T03:10:00,0,28204004,204113
OK,149,22,788,149,2014-10-02T03:25:00,0,28204453,204113
OK,149,22,788,149,2014-10-02T03:35:00,0,28204902,204113
OK,149,22,788,149,2014-10-02T03:40:00,0,28205336,204113
OK,149,22,788,149,2014-10-02T03:45:00,0,28205777,204113
OK,149,22,788,149,2014-10-02T03:55:00,0,28206609,204113
OK,149,22,788,149,2014-10-02T04:00:00,0,28207058,204113
OK,149,22,788,149,2014-10-02T04:10:00,0,28207926,204113
OK,149,22,788,149,2014-10-02T04:20:00,0,28208802,204113
OK,149,22,788,149,2014-10-02T04:25:00,0,28209242,204113
OK,149,22,788,149,2014-10-02T04:30:00,0,28209689,204113
OK,149,22,788,149,2014-10-02T04:35:00,0,28210130,204113
OK,149,22,788,149,2014-10-02T04:40:00,0,28210561,204113
OK,149,22,788,149,2014-10-02T04:45:00,0,28211430,204113
OK,149,22,788,149,2014-10-02T04:50:00,0,28211808,204113
OK,149,22,788,149,2014-10-02T05:00:00,0,28212257,204113
OK,149,22,788,149,2014-10-02T05:05:00,0,28212704,204113
OK,149,22,788,149,2014-10-02T05:10:00,0,28213135,204113
OK,149,22,788,149,2014-10-02T05:15:00,0,28213584,204113
OK,149,22,788,149,2014-10-02T05:20:00,0,28214022,204113
OK,149,22,788,149,2014-10-02T05:25:00,0,28214464,204113
OK,149,22,788,149,2014-10-02T05:30:00,0,28214884,204113
OK,149,22,788,149,2014-10-02T05:35:00,0,28215321,204113
OK,149,22,788,149,2014-10-02T05:40:00,0,28215749,204113
OK,149,22,788,149,2014-10-02T05:45:00,0,28216196,204113
OK,149,22,788,149,2014-10-02T05:50:00,0,28216530,204113
OK,158,21,788,158,2014-10-02T05:55:00,2,28216977,204113
OK,171,19,788,171,2014-10-02T06:00:00,3,28217424,204113
OK,141,24,788,141,2014-10-02T06:05:00,1,28217869,204113
OK,141,24,788,141,2014-10-02T06:10:00,0,28218312,204113
OK,265,12,788,265,2014-10-02T06:15:00,1,28218750,204113
OK,288,11,788,288,2014-10-02T06:20:00,1,28219181,204113
OK,216,15,788,216,2014-10-02T06:30:00,1,28220003,204113
OK,138,24,788,138,2014-10-02T06:40:00,2,28220886,204113
OK,153,22,788,153,2014-10-02T06:45:00,1,28221319,204113
OK,170,19,788,170,2014-10-02T07:00:00,1,28222147,204113
OK,94,36,788,94,2014-10-02T07:10:00,1,28222596,204113
OK,94,36,788,94,2014-10-02T07:15:00,0,28223463,204113
OK,94,36,788,94,2014-10-02T07:20:00,0,28223910,204113
OK,175,19,788,175,2014-10-02T07:25:00,1,28224265,204113
OK,175,19,788,175,2014-10-02T07:30:00,0,28224714,204113
OK,170,19,788,170,2014-10-02T07:40:00,0,28225163,204113
OK,93,36,788,93,2014-10-02T07:50:00,1,28225934,204113
OK,93,36,788,93,2014-10-02T07:55:00,0,28226379,204113
OK,93,36,788,93,2014-10-02T08:00:00,0,28226824,204113
OK,153,22,788,153,2014-10-02T08:05:00,1,28227264,204113
OK,153,22,788,153,2014-10-02T08:10:00,0,28227688,204113
OK,121,28,788,121,2014-10-02T08:20:00,0,28228496,204113
OK,121,28,788,121,2014-10-02T08:25:00,0,28228934,204113
OK,121,28,788,121,2014-10-02T08:30:00,0,28229355,204113
OK,121,28,788,121,2014-10-02T08:40:00,0,28230154,204113
OK,95,35,788,95,2014-10-02T08:50:00,1,28230969,204113
OK,95,35,788,95,2014-10-02T08:55:00,1,28231408,204113
OK,95,35,788,95,2014-10-02T09:00:00,0,28231841,204113
OK,95,35,788,95,2014-10-02T09:10:00,0,28232632,204113
OK,127,26,788,127,2014-10-02T09:20:00,0,28233081,204113
OK,93,36,788,93,2014-10-02T09:25:00,2,28233521,204113
OK,93,36,788,93,2014-10-02T09:30:00,0,28233954,204113
OK,93,36,788,93,2014-10-02T09:40:00,0,28234736,204113
OK,117,29,788,117,2014-10-02T09:50:00,0,28235612,204113
OK,170,19,788,170,2014-10-02T09:55:00,0,28236057,204113
OK,170,19,788,170,2014-10-02T10:00:00,0,28236502,204113
OK,170,19,788,170,2014-10-02T10:05:00,0,28237353,204113
OK,91,37,788,91,2014-10-02T10:15:00,0,28237801,204113
OK,91,37,788,91,2014-10-02T10:20:00,0,28238249,204113
OK,91,37,788,91,2014-10-02T10:25:00,0,28238691,204113
OK,91,37,788,91,2014-10-02T10:30:00,0,28239138,204113
OK,127,26,788,127,2014-10-02T10:40:00,2,28240017,204113
OK,127,26,788,127,2014-10-02T10:45:00,2,28240462,204113
OK,134,25,788,134,2014-10-02T10:50:00,0,28240910,204113
OK,134,25,788,134,2014-10-02T10:55:00,0,28241354,204113
OK,134,25,788,134,2014-10-02T11:00:00,0,28241790,204113
OK,190,17,788,190,2014-10-02T11:10:00,3,28242635,204113
OK,172,19,788,172,2014-10-02T11:15:00,2,28243084,204113
OK,154,22,788,154,2014-10-02T11:20:00,0,28243531,204113
OK,154,22,788,154,2014-10-02T11:25:00,0,28243850,204113
OK,154,22,788,154,2014-10-02T11:30:00,0,28244725,204113
OK,154,22,788,154,2014-10-02T11:40:00,0,28245174,204113
OK,201,16,788,201,2014-10-02T11:50:00,4,28246029,204113
OK,218,15,788,218,2014-10-02T12:00:00,3,28246915,204113
OK,158,21,788,158,2014-10-02T12:05:00,1,28247361,204113
OK,153,22,788,153,2014-10-02T12:15:00,0,28248240,204113
OK,153,22,788,153,2014-10-02T12:20:00,0,28248688,204113
OK,214,15,788,214,2014-10-02T12:30:00,0,28249559,204113
OK,153,22,788,153,2014-10-02T12:35:00,2,28250376,204113
OK,172,19,788,172,2014-10-02T12:45:00,1,28251156,204113
OK,178,19,788,178,2014-10-02T13:20:00,1,28251701,204113
OK,178,19,788,178,2014-10-02T13:30:00,0,28252285,204113
OK,178,19,788,178,2014-10-02T13:35:00,0,28252727,204113
OK,178,19,788,178,2014-10-02T13:40:00,0,28253144,204113
OK,320,10,788,320,2014-10-02T13:50:00,1,28253593,204113
OK,320,10,788,320,2014-10-02T13:55:00,0,28254319,204113
OK,320,10,788,320,2014-10-02T14:10:00,0,28254896,204113
OK,137,24,788,137,2014-10-02T14:15:00,3,28255345,204113
OK,137,24,788,137,2014-10-02T14:20:00,3,28255773,204113
OK,107,31,788,107,2014-10-02T14:25:00,0,28256222,204113
OK,105,32,788,105,2014-10-02T14:30:00,1,28256650,204113
OK,105,32,788,105,2014-10-02T14:35:00,0,28257099,204113
OK,105,32,788,105,2014-10-02T14:40:00,0,28257540,204113
OK,105,32,788,105,2014-10-02T14:45:00,0,28257988,204113
OK,206,16,788,206,2014-10-02T14:50:00,1,28258421,204113
OK,206,16,788,206,2014-10-02T14:55:00,1,28258867,204113
OK,148,22,788,148,2014-10-02T15:00:00,1,28259316,204113
OK,206,16,788,206,2014-10-02T15:05:00,1,28259763,204113
OK,206,16,788,206,2014-10-02T15:10:00,1,28260196,204113
OK,206,16,788,206,2014-10-02T15:15:00,0,28260645,204113
OK,206,16,788,206,2014-10-02T15:20:00,0,28261085,204113
OK,151,22,788,151,2014-10-02T15:25:00,2,28261467,204113
OK,122,27,788,122,2014-10-02T15:30:00,0,28261897,204113
OK,122,27,788,122,2014-10-02T15:35:00,0,28262344,204113
OK,122,27,788,122,2014-10-02T15:40:00,0,28262790,204113
OK,233,14,788,233,2014-10-02T15:45:00,1,28263228,204113
OK,233,14,788,233,2014-10-02T15:50:00,1,28263669,204113
OK,233,14,788,233,2014-10-02T15:55:00,0,28264071,204113
OK,233,14,788,233,2014-10-02T16:00:00,0,28264520,204113
OK,233,14,788,233,2014-10-02T16:05:00,0,28264958,204113
OK,95,35,788,95,2014-10-02T16:10:00,1,28265398,204113
OK,95,35,788,95,2014-10-02T16:15:00,1,28265794,204113
OK,95,35,788,95,2014-10-02T16:20:00,0,28266243,204113
OK,95,35,788,95,2014-10-02T16:25:00,0,28266692,204113
OK,95,35,788,95,2014-10-02T16:30:00,0,28267015,204113
OK,95,35,788,95,2014-10-02T16:35:00,0,28267464,204113
OK,95,35,788,95,2014-10-02T16:40:00,0,28267913,204113
OK,95,35,788,95,2014-10-02T16:45:00,0,28268355,204113
OK,95,35,788,95,2014-10-02T16:50:00,0,28268804,204113
OK,95,35,788,95,2014-10-02T16:55:00,0,28269253,204113
OK,95,35,788,95,2014-10-02T17:00:00,0,28269688,204113
OK,95,35,788,95,2014-10-02T17:05:00,0,28270137,204113
OK,95,35,788,95,2014-10-02T17:10:00,0,28270571,204113
OK,95,35,788,95,2014-10-02T17:15:00,0,28271020,204113
OK,95,35,788,95,2014-10-02T17:20:00,0,28271450,204113
OK,95,35,788,95,2014-10-02T17:25:00,0,28271898,204113
OK,95,35,788,95,2014-10-02T17:30:00,0,28272334,204113
OK,95,35,788,95,2014-10-02T17:35:00,0,28272775,204113
OK,95,35,788,95,2014-10-02T17:40:00,0,28273223,204113
OK,117,29,788,117,2014-10-02T17:45:00,1,28273669,204113
OK,117,29,788,117,2014-10-02T17:55:00,0,28274118,204113
OK,117,29,788,117,2014-10-02T18:00:00,0,28274892,204113
OK,117,29,788,117,2014-10-02T18:05:00,0,28275331,204113
OK,117,29,788,117,2014-10-02T18:10:00,0,28275776,204113
OK,117,29,788,117,2014-10-02T18:15:00,0,28276222,204113
OK,117,29,788,117,2014-10-02T18:20:00,0,28276618,204113
OK,117,29,788,117,2014-10-02T18:30:00,0,28277067,204113
OK,145,23,788,145,2014-10-02T18:40:00,0,28277516,204113
OK,145,23,788,145,2014-10-02T18:45:00,0,28278313,204113
OK,165,20,788,165,2014-10-02T19:00:00,1,28278762,204113
OK,165,20,788,165,2014-10-02T19:05:00,0,28279211,204113
OK,165,20,788,165,2014-10-02T19:10:00,0,28279656,204113
OK,165,20,788,165,2014-10-02T19:15:00,0,28280097,204113
OK,165,20,788,165,2014-10-02T19:20:00,0,28280544,204113
OK,165,20,788,165,2014-10-02T19:25:00,0,28280948,204113
OK,165,20,788,165,2014-10-02T19:35:00,0,28281846,204113
OK,165,20,788,165,2014-10-02T19:40:00,0,28282277,204113
OK,165,20,788,165,2014-10-02T19:45:00,0,28282726,204113
OK,165,20,788,165,2014-10-02T19:50:00,0,28283173,204113
OK,165,20,788,165,2014-10-02T19:55:00,0,28283603,204113
OK,165,20,788,165,2014-10-02T20:00:00,0,28283973,204113
OK,165,20,788,165,2014-10-02T20:10:00,0,28284422,204113
OK,165,20,788,165,2014-10-02T20:15:00,0,28285205,204113
OK,165,20,788,165,2014-10-02T20:20:00,0,28285641,204113
OK,165,20,788,165,2014-10-02T20:25:00,0,28286056,204113
OK,165,20,788,165,2014-10-02T20:35:00,0,28286908,204113
OK,165,20,788,165,2014-10-02T20:40:00,0,28287339,204113